SCP
0 0 0 -0 -0 -0 -0 -0 -0 0 0 0 0 0 0 0 0 0 0 0 0 0 0 0 0 0 0 0 0 0 0 0 0 0 0 0 0 0 0 0 0 0 0 0 0 0 0 0 0
0 0 0 0 0 0 0 -0 0 0 0 0 0 0 0 0 0 0 0 0 0 0 0 0 0 0 0 0 0 0 0 0 0 0 0 0 0 0 0 0 0 0 0 0 0 0 0 0 0
0 0 0 0 0 0 0 -0 0 0 0 0 0 0 0 0 0 0 0 0 0 0 0 0 0 0 0 0 0 0 0 0 0 0 0 0 0 0 0 0 0 0 0 0 0 0 0 0 0
0 0 0 0 0 0 0 -0 0 0 0 0 0 0 0 0 0 0 0 0 0 0 0 0 0 0 0 0 0 0 0 0 0 0 0 0 0 0 0 0 0 0 0 0 0 0 0 0 0
0 0 0 0 0 0 0 0 0 0 0 0 0 0 0 0 0 0 0 0 0 0 0 0 0 0 0 0 0 0 0 0 0 0 0 0 0 0 0 0 0 0 0 0 0 0 0 0 0
0 0 0 0 0 0 0 0 0 0 0 0 0 0 0 0 0 0 0 0 0 0 0 0 0 0 0 0 0 0 0 0 0 0 0 0 0 0 0 0 0 0 0 0 0 0 0 0 0
0 0 0 0 0 0 0 0 0 0 0 0 0 0 0 0 0 0 0 0 0 0 0 0 0 0 0 0 0 0 0 0 0 0 0 0 0 0 0 0 0 0 0 0 0 0 0 0 0
0 0 0 0 0 0 0 0 0 0 0 0 0 0 0 0 0 0 0 0 0 0 0 0 0 0 0 0 0 0 0 0 0 0 0 0 0 0 0 0 0 0 0 0 0 0 0 0 0
0 0 0 0 0 0 0 0 0 0 0 0 0 0 0 0 0 0 0 0 0 0 0 0 0 0 0 0 0 0 0 0 0 0 0 0 0 0 0 0 0 0 0 0 0 0 0 0 0
0 0 0 0 0 0 0 0 0 0 0 0 0 0 0 0 0 0 0 0 0 0 0 0 0 0 0 0 0 0 0 0 0 0 0 0 0 0 0 0 0 0 0 0 0 0 0 0 0
0 0 0 0 0 0 0 0 0 0 0 0 0 0 0 0 0 0 0 0 0 0 0 0 0 0 0 0 0 0 0 0 0 0 0 0 0 0 0 0 0 0 0 0 0 0 0 0 0
0 0 0 0 0 0 0 0 0 0 0 0 0 0 0 0 0 0 0 0 0 0 0 0 0 0 0 0 0 0 0 0 0 0 0 0 0 0 0 0 0 0 0 0 0 0 0 0 0
0 0 0 0 0 0 0 0 0 0 0 0 0 0 0 0 0 0 0 0 0 0 0 0 0 0 0 0 0 0 0 0 0 0 0 0 0 0 0 0 0 0 0 0 0 0 0 0 0
0 0 0 0 0 0 0 0 0 0 0 0 0 0 0 0 0 0 0 0 0 0 0 0 0 0 0 0 0 0 0 0 0 0 0 0 0 0 0 0 0 0 0 0 0 0 0 0 0
0 0 0 0 0 0 0 0 0 0 0 0 0 0 0 0 0 0 0 0 0 0 0 0 0 0 0 0 0 0 0 0 0 0 0 0 0 0 0 0 0 0 0 0 0 0 0 0 0
0 0 0 0 0 0 0 0 0 0 0 0 0 0 0 0 0 0 0 0 0 0 0 0 0 0 0 0 0 0 0 0 0 0 0 0 0 0 0 0 0 0 0 0 0 0 0 0 0
0 0 0 0 0 0 0 0 0 0 0 0 0 0 0 0 0 0 0 0 0 0 0 0 0 0 0 0 0 0 0 0 0 0 0 0 0 0 0 0 0 0 0 0 0 0 0 0 0
0 0 0 0 0 0 0 0 0 0 0 0 0 0 0 0 0 0 0 0 0 0 0 0 0 0 0 0 0 0 0 0 0 0 0 0 0 0 0 0 0 0 0 0 0 0 0 0 0
0 0 0 0 0 0 0 0 0 0 0 0 0 0 0 0 0 0 0 0 0 0 0 0 0 0 0 0 0 0 0 0 0 0 0 0 0 0 0 0 0 0 0 0 0 0 0 0 0
0 0 0 0 0 0 0 0 0 0 0 0 0 0 0 0 0 0 0 0 0 0 0 0 0 0 0 0 0 0 0 0 0 0 0 0 0 0 0 0 0 0 0 0 0 0 0 0 0
0 0 0 0 0 0 0 0 0 0 0 0 0 0 0 0 0 0 0 0 0 0 0 0 0 0 0 0 0 0 0 0 0 0 0 0 0 0 0 0 0 0 0 0 0 0 0 0 0
0 0 0 0 0 0 0 0 0 0 0 0 0 0 0 0 0 0 0 0 0 0 0 0 0 0 0 0 0 0 0 0 0 0 0 0 0 0 0 0 0 0 0 0 0 0 0 0 0
0 0 0 0 0 0 0 0 0 0 0 0 0 0 0 0 0 0 0 0 0 0 0 0 0 0 0 0 0 0 0 0 0 0 0 0 0 0 0 0 0 0 0 0 0 0 0 0 0
0 0 0 0 0 0 0 0 0 0 0 0 0 0 0 0 0 0 0 0 0 0 0 0 0 0 0 0 0 0 0 0 0 0 0 0 0 0 0 0 0 0 0 0 0 0 0 0 0
0 0 0 0 0 0 0 0 0 0 0 0 0 0 0 0 0 0 0 0 0 0 0 0 0 0 0 0 0 0 0 0 0 0 0 0 0 0 0 0 0 0 0 0 0 0 0 0 0
0 0 0 0 0 0 0 0 0 0 0 0 0 0 0 0 0 0 0 0 0 0 0 0 0 0 0 0 0 0 0 0 0 0 0 0 0 0 0 0 0 0 0 0 0 0 0 0 0
0 0 0 0 0 0 0 0 0 0 0 0 0 0 0 0 0 0 0 0 0 0 0 0 0 0 0 0 0 0 0 0 0 0 0 0 0 0 0 0 0 1 1 1 1 1 0 0 0
0 0 0 0 0 0 0 0 0 0 0 0 0 0 0 0 0 0 0 0 0 0 0 0 0 0 0 0 0 0 0 0 0 0 0 0 0 0 0 0 0 1 1 1 1 1 1 0 0
0 0 0 0 0 0 0 0 0 0 0 0 0 0 0 0 0 0 0 0 0 0 0 0 0 0 0 0 0 0 0 0 0 0 0 0 0 0 0 0 0 0 0 1 1 1 0 0 0
0 0 0 0 0 0 0 0 0 0 0 0 0 0 0 0 0 0 0 0 0 0 0 0 0 0 0 0 0 0 0 0 0 0 0 0 0 0 0 0 0 0 0 0 0 0 0 0 0
Wind_Speed
9 6 3 2 2 1 3 3 3 4 4 2 2 2 2 1 3 5 6 9 10 11 10 11 9 11 12 12 12 12 13 14 14 14 14 14 14 14 13 13 13 14 15 16 16 16 16 16 16
8 5 2 1 2 2 4 4 5 3 4 5 3 2 2 2 3 5 7 9 11 11 10 11 10 11 12 12 12 12 13 14 14 14 13 13 13 13 13 13 13 13 14 15 15 15 15 15 15
5 3 2 0 1 0 4 4 5 5 5 3 3 1 1 2 4 7 7 11 11 10 10 11 10 11 12 12 12 12 13 13 13 13 13 13 13 12 12 12 12 13 14 14 14 14 14 14 14
4 1 0 1 2 1 1 4 5 8 5 2 3 4 3 3 3 6 10 12 12 10 10 11 9 11 12 11 12 12 13 13 13 13 13 13 12 12 11 11 12 12 12 13 14 13 13 13 13
2 2 2 2 2 1 1 3 7 8 6 4 4 3 5 4 4 8 11 12 11 10 10 11 9 10 10 11 12 12 12 13 13 13 12 12 12 11 11 11 11 11 12 12 13 13 13 12 12
1 1 3 4 3 2 2 5 7 6 5 4 5 4 5 4 6 10 11 11 11 10 9 10 9 8 9 10 10 11 11 12 12 12 12 12 11 10 10 10 10 10 11 11 12 12 12 11 11
1 1 3 4 4 3 3 5 6 6 6 5 5 5 5 6 7 10 10 10 9 9 9 9 10 10 9 9 9 10 10 10 11 11 11 10 9 9 8 8 9 10 10 10 11 11 10 10 10
1 2 4 5 6 4 4 5 3 5 3 3 4 4 4 8 10 10 9 9 8 9 9 9 9 10 10 10 9 9 10 9 10 9 9 9 8 8 7 7 7 9 9 9 9 10 9 9 9
1 5 7 6 6 4 5 6 3 1 3 4 3 1 3 11 12 11 9 8 9 9 9 9 9 9 9 9 9 9 9 9 10 9 10 8 7 8 6 7 6 7 8 8 8 9 8 8 8
3 7 8 4 4 2 4 5 5 6 6 5 5 3 5 12 13 14 13 13 13 12 11 9 10 10 9 7 8 7 7 8 8 8 9 7 6 5 5 7 6 6 6 7 8 8 7 5 5
5 6 5 4 3 2 3 4 5 7 7 8 7 9 11 13 14 15 14 14 13 12 12 10 10 10 9 7 6 5 5 6 7 8 8 6 6 5 5 5 5 6 6 6 7 6 4 4 3
5 6 5 4 2 3 4 4 6 10 7 2 4 8 13 16 17 17 16 15 13 13 13 12 11 10 10 8 7 6 5 5 6 7 8 7 5 5 5 4 5 5 4 4 5 3 4 4 4
9 6 5 5 3 4 4 7 7 10 8 4 4 9 14 16 17 15 14 13 13 14 14 14 13 12 10 9 7 7 7 7 7 7 8 8 6 6 6 5 5 5 4 5 5 5 5 5 5
6 7 6 5 5 4 7 9 8 12 7 6 7 11 13 15 16 14 15 16 16 15 15 14 14 13 12 10 9 8 7 7 7 7 9 10 7 6 6 6 6 5 5 5 5 6 5 5 4
4 7 9 8 7 5 5 13 15 14 8 10 10 10 11 13 14 16 16 16 16 15 15 15 14 14 14 12 11 8 8 8 8 8 9 10 9 8 7 7 6 6 6 6 5 6 5 5 5
5 8 12 9 9 7 9 18 14 10 11 13 12 11 11 13 15 15 15 15 15 15 15 15 12 14 15 13 12 9 8 9 8 8 8 11 11 10 8 7 7 7 6 6 6 6 6 6 6
9 13 15 11 10 9 13 16 11 8 11 14 13 12 12 12 14 15 15 16 15 15 15 16 16 16 15 14 11 10 9 10 9 9 9 11 12 12 10 8 7 8 7 7 6 7 7 6 6
13 13 13 15 8 12 16 18 14 9 12 15 15 14 13 14 15 15 15 15 15 15 15 16 16 16 15 12 10 9 10 10 9 9 10 12 11 13 11 9 10 9 8 8 8 9 7 6 6
11 13 15 12 8 11 17 21 20 17 15 16 16 15 16 16 16 13 13 14 14 15 16 17 17 17 14 12 11 11 11 11 10 11 13 14 13 14 13 10 10 10 9 10 11 9 9 8 6
15 16 16 9 5 9 15 21 21 20 20 20 20 19 18 17 15 14 14 13 15 17 18 18 18 18 18 14 13 10 11 10 11 10 13 15 15 15 13 14 11 11 10 12 12 11 8 7 7
21 20 17 10 3 7 9 18 22 20 19 20 20 20 20 18 18 17 15 15 15 17 18 16 19 19 20 18 13 10 10 9 10 13 13 15 16 16 15 16 14 13 12 11 13 13 14 10 9
21 18 15 12 9 9 8 15 18 18 19 20 20 20 21 20 19 18 17 17 17 17 16 18 19 19 19 18 16 18 15 15 16 13 12 14 17 17 17 17 16 15 13 13 13 14 12 13 10
11 10 14 14 13 12 11 14 15 12 20 20 19 19 20 19 19 19 18 17 16 15 14 15 17 18 19 19 20 19 18 16 13 13 15 15 15 17 18 18 16 16 14 15 15 14 15 12 12
8 7 8 10 10 17 21 18 18 15 19 16 15 16 17 17 17 17 16 14 14 13 13 14 16 18 18 19 20 21 22 20 17 17 15 14 12 14 19 18 17 17 15 16 16 15 17 14 15
13 10 8 10 12 15 14 17 19 13 15 16 16 16 14 13 14 14 14 13 13 13 13 13 15 17 17 18 20 21 22 22 21 19 17 15 13 13 17 18 17 17 17 17 16 15 16 17 16
21 19 13 11 11 11 10 19 15 8 12 14 15 14 13 14 13 13 12 11 11 11 12 13 14 16 16 17 18 19 20 16 15 19 16 16 13 14 16 18 18 18 18 17 16 14 15 14 16
16 19 15 8 4 7 11 13 12 6 10 12 13 13 14 13 12 11 11 10 10 10 10 12 13 14 14 16 17 17 18 18 18 18 18 15 15 13 17 17 18 18 18 18 16 13 15 14 15
15 13 9 11 10 14 14 18 14 10 13 13 13 14 14 12 11 10 9 9 8 8 9 10 11 13 13 14 14 13 16 18 18 17 18 17 17 16 16 17 17 18 18 18 17 15 15 16 15
15 17 13 9 9 11 14 15 9 12 12 12 12 11 11 10 10 8 7 7 7 7 7 8 10 11 11 12 13 14 15 15 16 16 17 17 16 17 17 17 17 17 18 17 16 17 16 17 16
16 19 19 14 12 11 12 15 4 7 8 8 8 7 7 8 8 7 7 6 6 7 7 7 8 10 11 11 11 13 13 14 15 16 17 16 16 16 16 16 16 17 17 17 17 18 17 17 17
Wind_Direction
329 334 293 260 221 110 106 120 144 146 148 119 140 200 230 344 351 63 104 143 139 141 141 141 132 128 126 123 122 122 120 116 113 110 108 106 105 104 102 99 97 97 97 94 93 92 90 89 88
335 325 287 291 255 166 129 150 167 140 111 126 140 176 190 112 56 101 140 149 147 142 144 141 132 132 130 127 126 126 124 120 117 115 113 111 109 108 106 102 100 100 100 99 97 96 94 93 92
331 341 339 263 235 205 133 156 155 120 133 164 151 158 351 77 122 140 144 152 149 145 145 136 137 136 134 132 131 129 127 125 123 121 118 115 113 111 108 105 104 103 102 102 101 100 99 96 95
323 308 267 228 159 131 132 146 154 149 160 180 184 150 119 60 131 139 144 156 152 149 148 141 141 140 140 138 136 134 132 130 128 126 122 119 117 115 113 110 108 107 106 106 105 104 103 101 99
343 313 220 191 181 153 200 165 171 172 170 169 197 159 128 110 127 142 153 159 156 154 153 149 144 143 143 144 142 140 137 134 132 129 127 125 122 120 119 117 114 112 112 111 109 108 107 105 103
353 278 230 213 191 171 184 179 181 189 171 169 194 170 124 124 151 153 159 164 160 158 158 153 143 144 146 146 144 143 140 138 136 135 134 132 131 128 126 124 121 120 118 116 115 112 111 110 106
324 254 236 223 215 201 171 173 197 191 190 181 192 176 136 159 161 158 163 163 164 162 164 164 161 156 147 142 143 142 140 139 139 138 135 133 132 129 126 127 127 125 123 121 120 118 116 114 110
331 227 212 216 223 211 158 172 207 210 181 121 196 209 147 159 154 155 160 165 168 172 174 171 170 168 164 157 144 141 140 139 137 134 129 127 126 123 120 135 129 130 127 127 126 124 121 117 112
247 226 223 216 220 205 164 182 152 196 151 164 201 339 57 137 150 157 164 174 178 183 184 181 178 176 171 167 154 153 145 141 142 140 134 146 156 152 149 138 127 131 130 132 131 129 120 118 113
210 229 228 223 223 205 180 204 173 182 196 198 195 168 141 152 166 175 182 186 189 190 190 190 187 182 177 170 170 172 169 167 173 167 164 171 166 160 154 122 114 116 124 134 134 130 135 157 143
204 232 230 227 232 238 204 211 194 212 219 219 212 179 164 172 181 190 195 196 196 194 193 195 194 190 186 179 182 181 180 180 184 181 179 177 173 166 170 161 153 153 158 159 149 160 170 170 161
211 227 234 234 230 240 232 215 213 228 238 250 232 173 172 185 193 198 201 201 198 199 200 198 196 196 195 191 190 190 190 189 190 188 188 185 184 186 183 185 180 179 180 178 179 178 176 178 179
219 225 228 244 245 254 249 236 243 242 241 247 206 180 189 197 203 205 206 205 204 205 204 201 200 201 198 198 199 198 201 200 197 193 195 198 195 194 191 191 192 194 190 190 192 190 185 189 192
216 229 237 236 237 237 242 252 245 247 228 220 208 205 205 207 208 206 207 208 208 208 206 203 203 204 202 203 204 204 204 204 205 202 202 203 205 201 198 198 198 201 200 200 202 200 199 202 202
200 231 244 235 227 232 242 250 237 245 223 227 225 221 218 219 215 215 213 212 211 210 208 206 206 205 206 208 209 209 208 206 207 207 207 206 208 206 204 204 203 203 199 199 204 205 210 212 212
198 226 238 225 215 211 221 252 243 232 223 234 235 231 227 226 224 224 221 218 215 212 209 208 204 206 208 209 211 212 212 209 210 209 208 209 210 209 208 209 209 203 200 202 205 207 211 215 219
206 225 232 229 210 203 219 252 253 231 227 239 239 237 236 235 232 229 225 222 218 214 211 209 207 208 209 209 211 214 215 214 213 211 212 211 210 210 211 213 211 204 205 209 209 214 218 220 222
206 220 228 229 206 209 228 245 250 241 239 245 247 244 242 243 239 233 227 223 220 217 214 212 210 211 209 207 210 214 218 219 217 216 215 213 210 210 212 215 213 207 209 211 211 215 218 228 228
222 223 231 235 215 220 238 249 253 249 245 249 248 246 245 247 249 242 232 223 220 218 215 214 212 210 206 204 205 209 215 216 217 218 217 215 213 210 211 213 212 209 213 214 212 214 216 220 217
223 229 236 241 222 235 254 256 255 252 248 248 249 248 247 248 248 244 235 224 219 218 217 216 215 212 208 208 207 211 214 217 219 218 218 217 215 213 211 214 212 209 214 217 215 212 216 216 204
221 226 228 227 214 237 271 264 250 247 245 247 248 249 250 248 248 246 239 231 224 222 219 216 216 214 212 210 209 209 214 221 217 218 218 216 215 215 214 215 215 212 212 215 214 211 215 217 209
225 223 227 224 231 242 231 269 255 246 242 240 242 244 246 246 246 247 243 238 231 226 222 220 219 217 214 210 210 209 210 215 219 217 217 215 214 215 216 217 216 216 215 218 216 214 216 219 216
224 203 215 223 232 250 233 257 263 239 245 243 239 241 244 245 246 246 244 241 238 232 225 222 222 221 217 212 212 214 220 224 225 220 220 218 215 215 216 217 217 218 218 219 218 214 215 217 220
182 171 201 218 226 241 235 240 264 235 241 245 241 239 242 246 247 248 249 246 243 236 228 224 223 223 219 216 215 217 221 223 224 222 220 218 217 216 216 217 218 219 219 219 219 218 216 218 222
189 185 198 206 215 237 227 230 252 243 237 239 244 245 245 246 248 249 249 246 244 238 230 225 224 225 222 219 219 221 223 225 226 225 224 221 219 217 216 213 217 219 221 221 219 219 220 220 221
199 202 210 217 223 231 202 230 251 233 232 236 242 247 248 249 249 250 252 252 250 244 237 231 228 230 226 222 222 224 225 227 229 228 226 224 223 222 218 214 216 219 221 221 220 221 222 222 223
200 213 225 246 256 250 227 243 257 236 231 233 237 242 247 250 252 253 255 254 252 249 243 237 235 234 232 228 227 227 226 227 229 230 229 229 228 226 223 218 217 218 219 220 219 221 221 221 223
215 200 197 213 221 235 240 241 243 223 224 228 234 238 244 250 255 258 259 261 262 259 253 245 240 238 236 233 230 230 229 229 231 232 231 229 229 227 226 223 221 220 219 218 219 222 222 222 224
196 204 208 213 221 233 247 246 241 238 229 232 235 241 247 253 260 265 271 275 274 266 258 251 246 245 243 237 233 232 233 232 231 232 233 232 232 229 227 225 223 222 221 219 220 222 221 223 225
210 211 208 215 219 227 248 257 224 228 230 228 238 251 260 265 270 276 285 288 284 277 270 263 256 251 248 245 241 239 237 235 233 233 234 233 233 232 230 227 225 224 223 221 220 223 223 224 226